Beaufort MCAS, SC

2:39 AM EDT on March 24, 2017 (GMT -0400)
Beaufort Marine Corps Air Station

Weather History for KNBC - November, 2012

Change the Weather History Date:

Friday, November 16, 2012

  Actual Average Record
Temperature  
Mean Temperature 50 °F -  
Max Temperature 53 °F 68 °F 81 °F (1956)
Min Temperature 46 °F 48 °F 24 °F (1969)
Degree Days  
Heating Degree Days 16    
Moisture  
Dew Point 45 °F    
Average Humidity 85    
Maximum Humidity 100    
Minimum Humidity 74    
Precipitation  
Precipitation 0.00 in - - ()
Sea Level Pressure  
Sea Level Pressure 30.26 in    
Wind  
Wind Speed 8 mph (NNE)    
Max Wind Speed 13 mph    
Max Gust Speed -    
Visibility 8 miles    
Events      
Averages and records for this station are not official NWS values.
T = Trace of Precipitation, MM = Missing Value Source: NWS Daily Summary

Daily Weather History Graph

Daily Weather History Graph

Search for Another Location

Airport or City:

Trip Planner

Search our weather history database for the weather conditions in past years. The results will help you decide how hot, cold, wet, or windy it might be!

Date:

Astronomy

Nov. 16, 2012 Rise Set
Actual Time 6:53 AM EST 5:21 PM EST
Civil Twilight 6:27 AM EST 5:47 PM EST
Nautical Twilight 5:57 AM EST 6:17 PM EST
Astronomical Twilight 5:28 AM EST 6:46 PM EST
Moon 9:44 AM EST (11/16) 8:21 PM EST (11/16)
Length of Visible Light 11h 19m
Length of Day
10h 27m
Waxing Crescent, 11% of the Moon is Illuminated
Nov 16
Waxing Crescent
Nov 20
First Quarter
Nov 28
Full
Dec 6
Last Quarter
Dec 13
New

Hourly Weather History & Observations

Time (EST) Temp. Windchill Dew Point Humidity Pressure Visibility Wind Dir Wind Speed Gust Speed Precip Events Conditions
12:56 AM 46.9 °F - 45.0 °F 93% 30.22 in 4.0 mi North 10.4 mph - N/A   Overcast
1:30 AM 46.4 °F 42.9 °F 44.6 °F 93% 30.22 in 3.0 mi North 6.9 mph - N/A   Overcast
1:38 AM 46.4 °F 42.4 °F 46.4 °F 100% 30.22 in 2.5 mi North 8.1 mph - N/A   Overcast
1:56 AM 46.9 °F - 46.0 °F 97% 30.23 in 3.0 mi NNE 9.2 mph - N/A   Overcast
2:34 AM 46.4 °F 42.4 °F 46.4 °F 100% 30.23 in 4.0 mi NNE 8.1 mph - N/A   Overcast
2:56 AM 46.9 °F - 45.0 °F 93% 30.23 in 4.0 mi NNE 10.4 mph - N/A   Overcast
3:20 AM 46.4 °F 40.7 °F 44.6 °F 93% 30.22 in 8.0 mi NNE 12.7 mph - N/A   Overcast
3:56 AM 46.9 °F - 45.0 °F 93% 30.22 in 7.0 mi North 9.2 mph - N/A   Overcast
4:56 AM 46.9 °F - 45.0 °F 93% 30.22 in 8.0 mi North 8.1 mph - N/A   Overcast
5:56 AM 46.9 °F - 44.1 °F 90% 30.24 in 9.0 mi North 5.8 mph - N/A   Overcast
6:56 AM 46.9 °F - 44.1 °F 90% 30.25 in 9.0 mi North 5.8 mph - N/A   Overcast
7:56 AM 46.9 °F - 44.1 °F 90% 30.26 in 5.0 mi NNE 8.1 mph - N/A   Overcast
8:56 AM 48.0 °F - 45.0 °F 89% 30.28 in 9.0 mi NNE 9.2 mph - N/A   Overcast
9:56 AM 50.0 °F - 45.0 °F 83% 30.28 in 10.0 mi NNE 10.4 mph - N/A   Overcast
10:39 AM 51.8 °F - 44.6 °F 76% 30.28 in 10.0 mi NE 8.1 mph - N/A   Overcast
10:56 AM 51.1 °F - 45.0 °F 80% 30.28 in 10.0 mi NNE 10.4 mph - N/A   Overcast
11:56 AM 52.0 °F - 45.0 °F 77% 30.28 in 10.0 mi NE 9.2 mph - N/A   Overcast
12:10 PM 51.8 °F - 46.4 °F 82% 30.28 in 10.0 mi NNE 6.9 mph - N/A   Overcast
12:56 PM 52.0 °F - 45.0 °F 77% 30.27 in 10.0 mi NE 10.4 mph - N/A   Overcast
1:56 PM 53.1 °F - 45.0 °F 74% 30.26 in 10.0 mi NE 9.2 mph - N/A   Overcast
2:56 PM 53.1 °F - 45.0 °F 74% 30.26 in 10.0 mi NE 11.5 mph - N/A   Overcast
3:56 PM 53.1 °F - 45.0 °F 74% 30.26 in 10.0 mi ENE 6.9 mph - N/A   Overcast
4:56 PM 53.1 °F - 45.0 °F 74% 30.26 in 10.0 mi NE 6.9 mph - N/A   Overcast
5:18 PM 51.8 °F - 44.6 °F 76% 30.26 in 10.0 mi NE 4.6 mph - N/A   Scattered Clouds
5:56 PM 50.0 °F - 45.0 °F 83% 30.27 in 10.0 mi Calm Calm - N/A   Mostly Cloudy
6:56 PM 51.1 °F - 46.0 °F 83% 30.28 in 10.0 mi North 4.6 mph - N/A   Overcast
7:48 PM 50.0 °F - 46.4 °F 87% 30.28 in 10.0 mi North 4.6 mph - N/A   Partly Cloudy
7:56 PM 50.0 °F - 46.0 °F 86% 30.28 in 10.0 mi North 4.6 mph - N/A   Partly Cloudy
8:56 PM 48.9 °F - 45.0 °F 86% 30.29 in 10.0 mi North 6.9 mph - N/A   Clear
9:56 PM 50.0 °F - 45.0 °F 83% 30.30 in 10.0 mi NNE 6.9 mph - N/A   Clear
10:56 PM 50.0 °F - 45.0 °F 83% 30.30 in 10.0 mi NNE 6.9 mph - N/A   Clear
11:56 PM 48.9 °F - 44.1 °F 83% 30.29 in 10.0 mi NE 6.9 mph - N/A   Clear